カタログに戻る

THOR BURNER 2 R/B

運用中SSO
NORAD 4954·ROCKET BODY·🇺🇸 United States

打ち上げ Feb 17, 1971 から Vandenberg Space Force Base

Loading…

次のパス (今後24時間)

TLE

最新Source: Space-Track

元期: Sep 14, 2026, 20:25 UTC

1 04954U 71012B   26257.85117117  .00000112  00000-0  49039-4 0  9999
2 04954  98.3160 109.1842 0035752 324.1234  35.7554 14.39799523908779

AllMySatでTHOR BURNER 2 R/Bをリアルタイム追跡

Download on the App Store